Location: Chittendens Corners
(41.2320°N, 81.4940°W)
Time: 18:11:21
(UTC+00:00)

NOSS 3-3 (A) - Pass Details

Date: 29 October 2020
Orbit: 826 x 1387 km, 63.4° (Epoch: 22 November)

Event Time Altitude Azimuth Distance (km) Brightness Sun altitude
Rises 23:23:29 0° 205° (SSW) 3,376 7.3 -11.6°
Reaches altitude 10° 23:25:50 10° 203° (SSW) 2,476 6.6 -12.1°
Maximum altitude 23:31:29 70° 121° (ESE) 968 3.8 -13.1°
Drops below altitude 10° 23:37:51 10° 39° (NE) 2,774 6.0 -14.3°
Enters shadow 23:38:34 - 38° (NE) 3,044 6.2 -14.5°
